Voltar ao catálogo

CZ-6A DEB

AtivoSSO
NORAD 54615·DEBRIS·🇨🇳 China

Lançado Nov 11, 2022 de Taiyuan Satellite Launch Center

Loading…

Próximas Passagens (próximas 24 horas)

TLE

AtualizadoSource: Space-Track

Época: Sep 14, 2026, 06:02 UTC

1 54615U 22151NR  26257.25186342  .00000570  00000-0  33807-3 0  9991
2 54615  98.8514 252.9139 0056836  70.7275 290.0032 14.10699027196703

Acompanhe CZ-6A DEB em tempo real com AllMySat

Download on the App Store